Wind_Speed
30 28 33 35 28 31 33 27 26 28 24 21 20 18 19 18 16 16 13 15 8 7 9 8 13 16 20 18 19 21 23 21 21 16 8 14 24 24 25 23 22 20 16 15 18 23 24 24 20
31 29 30 29 30 26 25 23 20 21 23 22 22 22 23 21 18 17 15 15 13 12 10 8 9 13 17 16 18 19 21 23 22 21 11 8 15 21 23 21 21 19 16 14 14 15 19 17 16
33 32 31 31 30 28 25 25 24 20 19 20 23 23 22 23 23 20 17 17 17 18 15 10 9 13 15 15 15 18 20 20 22 23 21 13 6 14 20 22 20 17 15 15 12 13 16 17 16
32 31 32 30 28 27 26 24 25 23 22 20 19 17 18 16 17 20 20 20 15 17 22 14 14 13 17 17 14 15 19 18 20 24 22 20 10 2 9 15 18 19 17 17 18 15 14 15 13
33 33 31 28 28 27 24 24 26 23 21 20 17 15 16 16 16 15 18 21 22 22 21 14 15 15 14 14 16 14 18 18 18 21 20 20 20 13 3 4 8 12 13 14 14 13 12 11 8
35 33 32 31 32 31 28 26 23 22 21 21 18 19 19 19 18 17 18 19 22 24 23 19 20 15 13 11 13 14 15 21 17 19 17 17 17 15 12 6 2 2 5 7 9 9 9 9 11
35 33 31 30 30 29 29 26 26 24 21 22 20 20 20 19 18 17 17 18 21 21 23 25 23 21 21 15 14 18 15 14 14 20 19 14 13 13 12 11 8 2 3 5 6 8 10 9 10
40 37 35 34 32 33 30 28 29 27 25 25 23 22 22 21 20 20 19 17 17 20 21 21 26 24 25 24 17 19 19 16 16 16 17 17 13 10 11 11 9 10 11 10 11 12 12 12 12
45 42 39 37 36 33 32 31 31 30 27 25 25 23 23 23 22 21 20 18 20 20 20 21 23 24 23 21 19 32 28 18 20 20 16 17 14 13 12 12 12 10 11 13 15 17 16 16 18
47 48 44 41 39 38 36 34 34 32 30 30 29 28 25 22 22 23 22 23 23 22 21 21 21 25 25 31 28 32 23 23 27 25 21 19 19 17 15 15 15 15 16 17 17 19 21 22 23
52 49 47 46 43 43 41 41 38 37 35 37 37 35 33 30 28 27 25 25 25 26 27 26 26 25 25 30 25 29 29 33 33 29 27 25 25 24 24 20 20 21 23 24 24 24 26 28 29
56 54 51 49 48 47 48 48 45 41 38 39 40 40 39 38 38 37 35 33 33 30 30 31 32 32 31 29 28 31 35 36 36 33 30 31 33 30 29 29 28 27 26 27 28 30 31 32 33
58 57 55 53 52 52 52 53 51 48 43 43 45 43 43 43 43 43 42 41 40 40 38 36 34 35 37 37 34 33 33 37 35 38 37 35 40 39 38 38 36 36 36 35 35 34 35 37 40
64 61 59 57 55 56 59 57 58 53 48 49 49 47 48 48 49 48 49 47 47 45 45 43 42 40 39 39 38 39 36 38 40 41 42 42 42 44 46 45 44 43 42 41 42 42 42 41 43
69 65 62 62 62 62 61 58 63 56 56 56 53 53 54 54 54 54 54 55 53 51 49 49 48 45 43 42 41 42 43 44 42 41 45 46 50 51 50 49 49 47 47 49 47 49 46 47 46
74 69 64 67 68 66 63 63 66 60 60 58 58 59 58 57 58 59 60 59 56 56 56 55 53 51 49 47 47 47 47 47 47 47 49 51 50 53 53 53 54 54 54 54 55 54 52 54 55
72 69 72 73 70 69 64 62 70 66 64 62 62 63 61 61 62 63 62 62 62 61 60 61 59 57 55 53 54 55 54 54 54 54 53 53 54 54 55 59 61 62 61 62 63 62 62 67 67
77 75 73 73 74 71 69 66 72 71 67 65 66 66 66 67 67 66 66 66 67 67 66 66 64 63 61 61 60 61 61 61 60 60 61 61 60 58 59 59 62 65 65 66 67 70 72 73 69
76 73 72 71 75 75 77 72 73 74 70 71 73 73 73 71 71 72 71 72 71 71 70 70 71 72 71 71 69 66 67 66 68 69 68 70 70 69 66 66 65 66 64 66 69 72 74 75 75
85 82 78 78 77 76 72 73 79 80 77 76 77 79 78 77 75 76 76 75 74 75 75 76 77 78 76 73 74 72 72 72 74 75 76 74 74 75 73 72 70 75 74 73 73 73 73 75 78
86 88 89 87 87 85 81 74 76 75 76 81 83 84 84 83 81 80 79 78 78 79 81 81 81 80 80 80 78 78 78 77 78 79 80 80 81 81 81 80 80 81 80 80 79 80 77 78 76
92 93 94 94 94 91 87 81 78 78 80 85 88 86 87 84 81 83 83 84 85 85 85 86 85 85 86 84 83 84 86 86 90 93 95 95 94 95 94 94 94 94 93 91 89 89 89 86 82
94 99 102 103 100 96 91 88 78 81 86 88 90 89 86 86 88 88 88 88 88 87 88 90 90 90 91 93 93 93 96 98 98 100 100 102 105 106 104 102 100 98 91 92 95 95 93 91 88
103 100 102 104 104 100 95 95 82 86 88 89 92 95 93 93 93 92 92 92 92 90 91 93 96 97 99 100 99 99 100 102 105 108 107 107 106 106 105 104 102 97 93 92 93 94 96 95 92
110 105 104 108 107 104 102 98 86 91 93 95 96 97 97 96 97 96 95 96 98 100 101 101 102 103 102 101 103 106 104 107 103 102 104 104 105 106 109 111 108 104 99 98 94 92 93 95 96
116 114 113 113 110 108 107 97 90 92 96 99 102 98 97 99 100 100 102 104 105 106 106 106 105 105 106 107 110 112 110 107 107 106 106 108 109 110 114 113 111 108 104 102 99 95 93 94 96
118 118 118 118 117 116 109 98 99 99 100 106 103 102 100 103 106 107 108 108 111 115 113 112 111 110 111 113 116 117 113 112 112 112 115 117 116 115 109 108 108 108 107 106 104 100 97 96 93
120 119 121 121 120 118 111 105 99 99 107 106 107 110 110 108 111 115 118 120 121 119 117 114 114 115 117 119 118 117 118 118 119 119 123 119 113 112 110 112 114 115 117 117 112 108 103 99 98
120 123 127 129 129 127 120 109 101 106 110 113 114 116 117 117 118 123 124 125 124 121 119 119 120 122 122 123 123 122 123 125 128 128 123 120 117 118 118 121 121 122 121 121 118 115 110 105 102
127 126 129 128 126 129 128 115 106 112 116 120 124 124 124 123 124 125 128 129 128 126 124 124 125 125 125 125 126 129 131 134 131 124 124 126 124 122 117 117 117 117 118 118 119 117 114 111 106
Wind_Direction
240 244 247 252 252 256 262 262 269 276 276 274 274 274 283 285 287 310 312 329 308 323 341 350 358 6 6 6 14 12 9 14 11 356 275 237 224 225 230 235 233 234 240 251 249 254 265 279 276
245 250 250 251 253 254 259 257 258 267 277 269 273 275 280 276 279 290 287 303 335 314 314 322 340 358 358 357 10 14 12 12 17 17 357 269 237 229 230 233 231 233 230 239 253 264 265 274 288
242 248 253 257 259 260 259 256 258 269 277 280 275 277 278 278 275 277 280 281 297 318 317 305 311 335 348 349 358 12 17 13 14 12 14 5 280 240 229 231 240 243 245 242 252 255 261 267 274
240 241 249 255 256 258 257 261 264 270 278 284 286 288 286 294 281 279 275 267 291 311 307 295 314 319 331 340 348 358 12 19 22 15 10 13 11 292 233 238 244 246 241 247 245 246 235 251 244
237 245 249 254 252 256 259 263 268 273 275 277 278 276 282 293 294 296 287 276 275 287 304 294 293 307 320 325 334 346 349 359 14 15 15 11 16 24 347 234 215 230 243 244 243 226 227 226 265
239 243 242 247 254 257 260 261 263 267 267 271 275 276 277 279 281 282 285 289 290 289 279 283 296 298 301 308 321 335 332 339 352 4 4 12 9 16 15 20 44 174 183 199 181 196 216 248 272
235 237 239 243 249 254 257 256 257 264 264 269 274 274 273 277 283 283 282 280 284 289 286 279 287 291 299 286 300 318 311 320 328 338 345 354 3 2 360 4 356 334 185 191 198 226 246 276 292
233 235 239 242 246 251 253 254 258 260 262 264 269 271 278 278 275 280 286 286 290 291 292 294 288 289 297 287 283 306 302 301 309 313 326 334 334 340 345 342 338 333 317 287 279 272 275 282 287
236 237 240 247 248 248 252 255 256 260 259 261 264 265 270 277 282 287 288 289 290 291 293 290 290 292 280 277 276 298 296 290 290 291 302 300 309 312 309 312 315 316 309 295 291 293 290 290 290
236 235 240 245 247 248 252 252 257 256 256 264 265 261 259 262 270 278 286 292 294 291 289 289 294 288 283 279 279 290 273 298 294 279 278 288 288 291 292 288 278 282 285 284 283 281 278 276 279
239 241 242 246 249 248 251 252 251 253 255 264 269 268 266 267 267 270 272 276 280 290 293 287 287 288 290 281 284 283 274 289 297 277 275 278 280 281 283 284 285 279 275 273 270 271 275 277 280
241 243 244 246 250 250 250 251 252 250 255 262 266 268 271 274 275 277 278 280 283 282 285 289 289 286 279 278 289 291 279 280 290 274 269 276 280 275 278 277 281 279 279 283 279 276 278 279 282
244 245 245 249 250 250 251 253 251 251 256 261 260 262 265 269 273 276 278 278 282 283 282 282 283 284 286 285 277 277 279 279 282 275 268 268 284 278 276 275 275 274 277 279 277 278 282 283 285
244 245 246 247 249 250 249 252 252 251 257 258 260 263 266 268 270 271 274 275 279 281 281 283 285 285 284 282 283 283 272 269 273 272 269 271 270 275 273 273 271 273 272 273 275 275 280 282 284
245 245 246 247 246 247 248 251 253 254 256 260 262 262 263 264 268 271 273 276 279 281 283 282 284 285 282 280 280 280 279 279 271 268 264 269 275 272 270 271 270 271 277 273 272 275 275 278 281
244 245 248 248 245 247 247 250 252 253 257 261 263 264 265 268 267 269 273 274 278 281 282 282 283 282 280 275 275 277 279 280 279 278 271 269 272 273 266 267 271 273 272 273 271 271 272 275 281
249 245 244 245 246 246 246 248 255 254 257 261 263 264 266 266 265 269 272 276 278 277 278 278 279 280 280 278 278 279 279 278 277 277 276 276 275 273 270 271 272 272 274 273 272 274 276 282 281
248 246 245 247 247 248 248 247 253 256 257 261 264 265 266 265 267 268 270 271 273 276 279 280 281 280 280 281 283 280 279 278 276 275 275 275 275 276 277 275 273 274 275 276 277 276 276 277 280
248 252 252 252 253 250 248 248 251 256 258 260 265 266 264 265 266 268 269 271 274 276 277 279 282 282 283 283 281 279 278 278 277 276 276 276 276 276 275 276 276 276 277 278 277 275 275 276 275
246 246 247 250 253 250 254 253 252 255 259 260 263 265 266 266 266 267 269 273 276 279 280 280 279 280 281 280 280 279 278 279 278 277 276 276 277 276 275 273 272 275 276 277 277 278 277 275 274
249 250 249 250 253 255 253 250 252 255 259 262 264 265 267 268 269 269 273 276 277 278 278 278 278 278 279 279 280 279 279 278 279 279 279 279 280 280 279 278 277 276 276 277 277 275 277 278 278
247 249 249 249 250 252 254 252 256 259 262 265 265 266 268 267 269 273 275 275 276 277 278 279 280 280 281 281 279 279 280 280 280 280 280 279 278 279 279 279 278 276 277 277 276 277 276 277 276
243 248 250 250 250 251 253 254 251 257 262 263 266 268 268 267 270 273 273 274 276 278 280 281 280 280 280 280 281 281 284 286 285 284 284 284 286 285 282 280 278 275 275 275 274 274 273 274 274
244 246 251 255 255 255 256 257 254 255 257 261 265 267 270 270 271 273 274 275 276 276 276 276 276 278 279 281 281 282 284 286 287 287 287 286 287 285 284 283 280 277 276 275 273 270 271 271 269
249 248 250 254 257 258 257 257 260 259 259 259 261 265 269 271 274 275 276 276 275 276 278 279 278 278 279 280 282 284 282 286 286 286 285 285 285 285 285 284 281 278 274 273 272 271 270 267 268
247 248 252 256 258 260 260 261 261 258 261 260 261 266 269 271 274 274 274 274 275 275 277 277 276 276 278 280 283 286 285 283 285 288 288 287 285 284 283 281 279 278 277 275 272 268 267 266 266
249 251 253 254 256 258 259 260 257 258 261 260 265 269 270 271 274 276 275 274 276 279 278 276 276 277 279 281 283 285 285 285 286 287 288 287 285 283 280 279 277 276 275 273 271 268 266 263 263
251 252 254 255 255 256 256 257 260 261 263 265 268 270 270 272 275 278 279 277 279 280 279 278 278 279 280 283 285 285 285 286 286 286 287 285 282 281 281 279 278 276 275 273 271 269 265 263 260
250 251 253 254 256 259 260 259 258 261 262 265 269 272 273 274 274 276 277 278 279 279 279 279 280 283 283 282 283 284 283 284 286 285 285 283 282 282 281 280 279 276 273 272 271 267 266 262 258
251 253 255 257 259 260 260 260 262 261 263 266 270 271 272 273 273 274 275 278 280 280 281 280 280 280 280 280 282 284 284 286 287 285 285 285 285 285 283 279 275 272 270 268 267 266 266 264 260
Height
10876 10877 10880 10884 10888 10889 10889 10890 10890 10891 10893 10895 10897 10899 10900 10901 10901 10902 10902 10901 10900 10900 10899 10898 10898 10896 10894 10893 10890 10889 10887 10883 10879 10876 10873 10872 10874 10877 10880 10882 10884 10885 10887 10888 10890 10891 10891 10891 10892
10872 10873 10876 10879 10883 10885 10886 10887 10887 10888 10890 10892 10893 10895 10896 10897 10898 10899 10900 10900 10899 10899 10898 10898 10897 10896 10895 10894 10892 10890 10887 10885 10881 10877 10874 10872 10872 10874 10876 10879 10881 10883 10885 10886 10887 10888 10889 10889 10889
10868 10870 10872 10874 10878 10881 10881 10883 10885 10887 10888 10889 10889 10891 10892 10893 10894 10895 10896 10897 10897 10897 10897 10897 10897 10896 10895 10894 10893 10891 10888 10886 10883 10880 10876 10873 10872 10872 10874 10877 10880 10883 10883 10884 10885 10886 10887 10887 10888
10864 10866 10868 10870 10874 10875 10876 10879 10881 10884 10885 10885 10886 10888 10889 10889 10890 10891 10892 10893 10894 10895 10895 10896 10896 10895 10895 10894 10893 10892 10889 10887 10884 10883 10880 10877 10874 10872 10873 10875 10878 10881 10882 10883 10884 10884 10885 10886 10886
10858 10861 10863 10866 10869 10870 10873 10875 10877 10880 10880 10881 10883 10885 10886 10887 10888 10888 10889 10890 10892 10892 10893 10893 10893 10894 10894 10894 10893 10891 10891 10889 10886 10884 10883 10881 10878 10876 10875 10875 10876 10877 10880 10881 10882 10883 10884 10885 10886
10853 10855 10859 10861 10864 10866 10868 10870 10872 10875 10876 10876 10879 10881 10882 10882 10884 10885 10886 10887 10888 10889 10890 10891 10892 10892 10892 10892 10892 10891 10890 10889 10887 10886 10885 10883 10883 10882 10881 10879 10878 10878 10878 10879 10880 10882 10883 10884 10884
10848 10850 10853 10856 10859 10861 10864 10866 10867 10869 10871 10872 10874 10876 10877 10878 10879 10880 10882 10883 10884 10885 10886 10888 10888 10889 10890 10890 10890 10890 10890 10889 10887 10886 10885 10885 10883 10883 10883 10883 10882 10882 10881 10881 10881 10882 10883 10883 10883
10841 10845 10847 10851 10854 10856 10858 10861 10861 10864 10866 10868 10869 10871 10871 10873 10874 10875 10877 10879 10880 10881 10883 10884 10885 10886 10886 10887 10887 10888 10888 10888 10888 10887 10885 10884 10884 10883 10883 10883 10883 10883 10883 10882 10882 10882 10882 10881 10881
10833 10838 10842 10844 10848 10850 10852 10855 10857 10859 10861 10863 10864 10866 10867 10869 10870 10871 10873 10875 10877 10878 10879 10880 10881 10881 10882 10883 10884 10885 10885 10885 10885 10885 10885 10884 10883 10882 10882 10881 10882 10882 10882 10882 10881 10881 10880 10879 10878
10825 10830 10836 10839 10842 10844 10846 10849 10851 10854 10856 10856 10859 10860 10862 10865 10867 10868 10870 10871 10871 10872 10874 10875 10877 10877 10878 10879 10880 10881 10881 10881 10882 10882 10881 10882 10881 10881 10880 10880 10879 10879 10879 10879 10879 10878 10876 10875 10874
10816 10822 10829 10832 10835 10839 10841 10842 10845 10847 10850 10850 10852 10853 10856 10859 10862 10863 10865 10867 10868 10869 10869 10869 10871 10872 10873 10874 10875 10876 10877 10877 10878 10877 10877 10877 10877 10878 10878 10878 10877 10877 10876 10875 10874 10873 10872 10871 10869
10807 10813 10820 10825 10828 10831 10834 10835 10836 10839 10843 10845 10845 10845 10849 10852 10855 10856 10860 10861 10864 10865 10866 10866 10865 10866 10868 10868 10869 10870 10871 10872 10873 10873 10872 10872 10872 10873 10873 10873 10873 10872 10871 10871 10869 10868 10867 10865 10864
10799 10804 10811 10818 10821 10824 10824 10825 10827 10829 10835 10837 10836 10840 10842 10845 10847 10849 10852 10854 10856 10858 10859 10861 10861 10861 10861 10862 10863 10864 10865 10865 10866 10867 10867 10867 10867 10866 10865 10866 10866 10865 10865 10864 10862 10860 10858 10857 10856
10786 10794 10801 10808 10813 10814 10814 10816 10815 10819 10827 10826 10828 10832 10835 10836 10837 10840 10842 10844 10845 10848 10851 10853 10854 10855 10856 10856 10856 10856 10856 10856 10858 10860 10860 10860 10859 10859 10857 10856 10856 10857 10856 10855 10854 10852 10851 10849 10847
10774 10782 10791 10796 10798 10800 10803 10808 10800 10812 10813 10818 10821 10823 10824 10826 10828 10830 10833 10833 10837 10840 10843 10845 10844 10845 10847 10849 10849 10848 10847 10848 10848 10848 10849 10849 10849 10848 10847 10847 10846 10847 10848 10846 10844 10843 10842 10841 10839
10764 10771 10780 10779 10781 10787 10795 10795 10790 10801 10803 10806 10809 10810 10813 10817 10817 10818 10823 10826 10829 10830 10832 10832 10833 10833 10835 10837 10840 10840 10840 10839 10839 10839 10837 10837 10837 10837 10837 10837 10836 10837 10837 10836 10834 10832 10831 10830 10830
10756 10762 10758 10759 10768 10773 10784 10790 10777 10786 10791 10794 10796 10798 10803 10804 10804 10808 10812 10815 10816 10817 10818 10820 10822 10823 10824 10828 10829 10829 10829 10829 10830 10828 10826 10825 10824 10824 10825 10825 10824 10825 10825 10823 10822 10821 10821 10820 10819
10735 10736 10745 10750 10755 10764 10772 10779 10764 10770 10780 10782 10782 10785 10789 10789 10789 10797 10801 10802 10802 10805 10806 10808 10809 10810 10812 10814 10816 10815 10814 10815 10815 10813 10813 10811 10812 10814 10813 10811 10810 10808 10810 10809 10808 10807 10806 10805 10804
10721 10730 10734 10737 10738 10748 10754 10764 10763 10758 10768 10767 10768 10770 10771 10777 10779 10780 10784 10788 10791 10794 10796 10797 10796 10794 10797 10798 10798 10800 10799 10801 10798 10799 10798 10796 10797 10800 10800 10798 10796 10792 10795 10795 10793 10791 10790 10789 10789
10707 10714 10718 10719 10719 10728 10738 10752 10752 10750 10753 10754 10752 10752 10753 10759 10764 10766 10771 10776 10779 10779 10781 10782 10782 10781 10781 10783 10782 10785 10784 10783 10781 10779 10778 10779 10780 10780 10780 10780 10778 10775 10777 10777 10774 10773 10772 10772 10771
10691 10697 10698 10703 10706 10714 10726 10739 10737 10742 10737 10734 10734 10735 10739 10742 10748 10752 10756 10759 10761 10762 10763 10764 10765 10765 10764 10765 10767 10765 10766 10768 10763 10760 10761 10762 10762 10760 10761 10761 10762 10759 10758 10758 10755 10753 10754 10752 10752
10671 10673 10675 10681 10687 10698 10708 10727 10730 10724 10721 10717 10711 10719 10721 10731 10735 10737 10739 10741 10741 10742 10742 10743 10744 10745 10745 10746 10748 10747 10747 10749 10744 10742 10740 10737 10738 10737 10737 10736 10739 10737 10737 10737 10734 10733 10732 10731 10733
10650 10651 10655 10663 10669 10678 10692 10699 10719 10710 10701 10700 10696 10699 10707 10712 10717 10719 10720 10722 10723 10722 10722 10722 10722 10723 10724 10723 10725 10726 10724 10722 10722 10718 10717 10713 10709 10707 10706 10707 10710 10714 10712 10712 10709 10706 10709 10709 10709
10627 10632 10636 10641 10645 10662 10674 10674 10706 10695 10689 10688 10681 10678 10686 10691 10695 10698 10702 10704 10705 10706 10706 10705 10703 10701 10701 10701 10701 10702 10702 10700 10698 10694 10692 10689 10685 10680 10677 10676 10677 10682 10685 10686 10683 10682 10682 10683 10684
10612 10615 10614 10610 10620 10640 10647 10652 10686 10682 10675 10670 10665 10665 10669 10671 10674 10677 10679 10680 10682 10683 10685 10685 10683 10681 10678 10676 10676 10676 10677 10676 10674 10670 10666 10664 10660 10656 10651 10646 10647 10650 10652 10654 10655 10657 10657 10655 10656
10583 10586 10592 10593 10604 10612 10618 10648 10662 10656 10652 10647 10643 10654 10656 10656 10658 10657 10657 10657 10658 10659 10661 10661 10660 10656 10654 10653 10651 10649 10648 10647 10645 10644 10640 10637 10635 10631 10625 10620 10617 10618 10620 10623 10625 10629 10632 10629 10630
10566 10568 10566 10566 10577 10585 10603 10632 10633 10633 10627 10615 10628 10635 10638 10640 10634 10634 10635 10635 10635 10634 10634 10634 10635 10633 10630 10627 10624 10621 10619 10617 10615 10613 10610 10608 10604 10602 10597 10594 10592 10588 10588 10590 10590 10595 10601 10603 10605
10548 10547 10543 10546 10550 10553 10580 10597 10616 10614 10596 10604 10609 10609 10611 10617 10616 10609 10607 10607 10608 10608 10607 10606 10606 10605 10603 10599 10595 10592 10588 10585 10582 10580 10577 10575 10572 10569 10566 10563 10560 10559 10555 10553 10556 10561 10566 10571 10576
10518 10523 10518 10514 10519 10532 10554 10583 10598 10590 10581 10577 10582 10585 10586 10588 10589 10585 10580 10578 10580 10581 10581 10579 10577 10573 10572 10567 10563 10560 10557 10553 10551 10548 10544 10540 10538 10536 10533 10528 10524 10523 10522 10520 10522 10525 10528 10538 10545
10497 10505 10495 10503 10512 10507 10515 10562 10577 10567 10559 10558 10557 10556 10556 10558 10558 10558 10559 10556 10553 10550 10551 10547 10544 10542 10540 10534 10531 10529 10526 10521 10516 10512 10508 10502 10500 10496 10491 10486 10486 10485 10485 10486 10484 10488 10492 10501 10513